BCO3 EGCC-EGPH

Flight info

Callsign BCO3
Flight time 0h 34m
Altitude 24000
Route POL N601 INPIP
Aircraft A337/H-SDE3GHIJ2J3J5M1RVWXY/LB2D1

Departure

Time 2026-04-25 20:04
Airport Manchester Airport (EGCC)

Arrival

Time 2026-04-25 20:38
Airport Edinburgh Airport (EGPH)
Time Latitude Longitude Altitude Speed Heading
2026-04-25 19:42 53.35764 -2.28272 237 ft 0 kts 277°
2026-04-25 19:53 53.35763 -2.28262 237 ft 4 kts 275°
2026-04-25 19:53 53.35762 -2.28213 237 ft 4 kts 264°
2026-04-25 19:53 53.35766 -2.28173 237 ft 4 kts 255°
2026-04-25 19:54 53.35774 -2.28130 237 ft 3 kts 248°
2026-04-25 19:54 53.35783 -2.28096 237 ft 4 kts 245°
2026-04-25 19:54 53.35795 -2.28056 237 ft 4 kts 240°
2026-04-25 19:54 53.35803 -2.28030 237 ft 4 kts 238°
2026-04-25 19:55 53.35823 -2.27980 237 ft 4 kts 237°
2026-04-25 19:55 53.35834 -2.27949 237 ft 4 kts 238°
2026-04-25 19:55 53.35849 -2.27911 237 ft 4 kts 234°
2026-04-25 19:55 53.35866 -2.27876 237 ft 4 kts 223°
2026-04-25 19:56 53.35887 -2.27852 237 ft 4 kts 192°
2026-04-25 19:56 53.35893 -2.27849 237 ft 5 kts 186°
2026-04-25 19:58 53.35865 -2.27828 237 ft 7 kts 137°
2026-04-25 19:58 53.35832 -2.27769 237 ft 8 kts 134°
2026-04-25 19:58 53.35787 -2.27692 237 ft 10 kts 140°
2026-04-25 19:58 53.35722 -2.27635 237 ft 11 kts 159°
2026-04-25 19:59 53.35651 -2.27564 237 ft 13 kts 141°
2026-04-25 19:59 53.35589 -2.27482 237 ft 6 kts 141°
2026-04-25 19:59 53.35579 -2.27468 237 ft 0 kts 141°
2026-04-25 20:00 53.35579 -2.27467 237 ft 1 kts 141°
2026-04-25 20:00 53.35526 -2.27396 239 ft 12 kts 141°
2026-04-25 20:01 53.35416 -2.27248 240 ft 15 kts 142°
2026-04-25 20:01 53.35311 -2.27197 237 ft 17 kts 187°
2026-04-25 20:01 53.35195 -2.27235 237 ft 15 kts 191°
2026-04-25 20:02 53.35160 -2.27247 237 ft 0 kts 191°
2026-04-25 20:02 53.35110 -2.27266 237 ft 25 kts 192°
2026-04-25 20:03 53.35007 -2.27332 237 ft 12 kts 226°
2026-04-25 20:03 53.34983 -2.27377 237 ft 15 kts 230°
2026-04-25 20:03 53.34733 -2.27893 240 ft 95 kts 231°
2026-04-25 20:03 53.34183 -2.29033 262 ft 156 kts 231°
2026-04-25 20:04 53.33452 -2.30548 733 ft 180 kts 230°
2026-04-25 20:04 53.32615 -2.32330 1387 ft 205 kts 230°
2026-04-25 20:04 53.31820 -2.34549 1825 ft 241 kts 249°
2026-04-25 20:04 53.31808 -2.37417 2510 ft 255 kts 288°
2026-04-25 20:05 53.32830 -2.39780 3323 ft 260 kts 322°
2026-04-25 20:05 53.34450 -2.41079 4098 ft 260 kts 339°
2026-04-25 20:05 53.36224 -2.41742 4758 ft 264 kts
2026-04-25 20:05 53.38043 -2.41089 5408 ft 270 kts 21°
2026-04-25 20:06 53.39777 -2.39845 6137 ft 277 kts 24°
2026-04-25 20:06 53.41533 -2.38445 7068 ft 279 kts 25°
2026-04-25 20:06 53.43278 -2.37031 8057 ft 280 kts 25°
2026-04-25 20:06 53.45044 -2.35603 8962 ft 283 kts 25°
2026-04-25 20:07 53.46840 -2.34209 9897 ft 286 kts 19°
2026-04-25 20:07 53.48794 -2.33535 10637 ft 294 kts
2026-04-25 20:07 53.50925 -2.33102 11001 ft 314 kts
2026-04-25 20:07 53.53161 -2.32862 11543 ft 325 kts
2026-04-25 20:08 53.55450 -2.32713 12250 ft 331 kts
2026-04-25 20:08 53.57761 -2.32588 12985 ft 335 kts
2026-04-25 20:08 53.60104 -2.32453 13731 ft 339 kts
2026-04-25 20:08 53.62473 -2.32295 14442 ft 342 kts
2026-04-25 20:09 53.64864 -2.32117 15080 ft 346 kts
2026-04-25 20:09 53.67276 -2.31922 15733 ft 349 kts
2026-04-25 20:09 53.69717 -2.31716 16381 ft 352 kts
2026-04-25 20:09 53.72169 -2.31505 17049 ft 355 kts
2026-04-25 20:10 53.73010 -2.31431 17274 ft 357 kts 360°
2026-04-25 20:10 53.76312 -2.31145 18096 ft 361 kts
2026-04-25 20:10 53.78869 -2.30927 18692 ft 364 kts
2026-04-25 20:10 53.81410 -2.30710 19217 ft 367 kts
2026-04-25 20:11 53.83970 -2.30490 19756 ft 370 kts
2026-04-25 20:11 53.86549 -2.30268 20286 ft 372 kts 360°
2026-04-25 20:11 53.89148 -2.30044 20811 ft 375 kts 360°
2026-04-25 20:11 53.91762 -2.29818 21319 ft 377 kts
2026-04-25 20:12 53.94389 -2.29591 21837 ft 380 kts
2026-04-25 20:12 53.97041 -2.29364 22318 ft 382 kts
2026-04-25 20:12 53.99705 -2.29255 22786 ft 383 kts 354°
2026-04-25 20:12 54.01443 -2.29581 23085 ft 382 kts 347°
2026-04-25 20:13 54.04878 -2.31219 23711 ft 383 kts 339°
2026-04-25 20:13 54.07394 -2.32776 24081 ft 385 kts 336°
2026-04-25 20:13 54.09903 -2.34485 24235 ft 393 kts 335°
2026-04-25 20:13 54.12458 -2.36304 24264 ft 404 kts 335°
2026-04-25 20:14 54.15096 -2.38201 24262 ft 415 kts 335°
2026-04-25 20:14 54.17794 -2.40132 24265 ft 425 kts 335°
2026-04-25 20:14 54.20558 -2.42089 24261 ft 434 kts 335°
2026-04-25 20:14 54.23381 -2.44072 24276 ft 443 kts 335°
2026-04-25 20:15 54.26256 -2.46081 24268 ft 451 kts 336°
2026-04-25 20:15 54.29185 -2.48123 24269 ft 458 kts 336°
2026-04-25 20:15 54.32167 -2.50202 24265 ft 465 kts 336°
2026-04-25 20:15 54.35182 -2.52308 24268 ft 471 kts 336°
2026-04-25 20:16 54.38240 -2.54449 24270 ft 477 kts 336°
2026-04-25 20:16 54.41329 -2.56616 24251 ft 482 kts 336°
2026-04-25 20:16 54.44415 -2.58784 24260 ft 487 kts 336°
2026-04-25 20:16 54.47521 -2.60969 24326 ft 483 kts 336°
2026-04-25 20:17 54.50612 -2.63144 24093 ft 474 kts 336°
2026-04-25 20:17 54.53670 -2.65297 23859 ft 466 kts 336°
2026-04-25 20:17 54.56651 -2.67404 23566 ft 460 kts 335°
2026-04-25 20:17 54.59588 -2.69492 23309 ft 454 kts 335°
2026-04-25 20:18 54.62520 -2.71583 23044 ft 459 kts 335°
2026-04-25 20:18 54.65512 -2.73722 22762 ft 472 kts 335°
2026-04-25 20:18 54.68548 -2.75894 22476 ft 461 kts 335°
2026-04-25 20:18 54.71425 -2.77944 22252 ft 435 kts 335°
2026-04-25 20:19 54.74152 -2.79890 22002 ft 411 kts 335°
2026-04-25 20:19 54.76725 -2.81732 21736 ft 391 kts 335°
2026-04-25 20:19 54.79190 -2.83499 21477 ft 377 kts 335°
2026-04-25 20:19 54.81600 -2.85234 21223 ft 374 kts 335°
2026-04-25 20:20 54.83996 -2.86962 20973 ft 374 kts 335°
2026-04-25 20:20 54.86396 -2.88693 20427 ft 371 kts 335°
2026-04-25 20:20 54.88779 -2.90413 19683 ft 369 kts 335°
2026-04-25 20:20 54.91137 -2.92116 19036 ft 364 kts 335°
2026-04-25 20:21 54.93467 -2.93800 18341 ft 361 kts 335°
2026-04-25 20:21 54.95767 -2.95466 17560 ft 358 kts 335°
2026-04-25 20:21 54.98067 -2.97133 16779 ft 355 kts 335°
2026-04-25 20:21 55.00346 -2.98787 16005 ft 353 kts 335°
2026-04-25 20:22 55.02603 -3.00428 15289 ft 350 kts 335°
2026-04-25 20:22 55.04086 -3.01525 14813 ft 348 kts 334°
2026-04-25 20:22 55.07054 -3.03749 13843 ft 345 kts 334°
2026-04-25 20:22 55.09246 -3.05429 13103 ft 341 kts 334°
2026-04-25 20:23 55.11400 -3.07076 12358 ft 338 kts 335°
2026-04-25 20:23 55.13551 -3.08705 11643 ft 335 kts 335°
2026-04-25 20:23 55.15686 -3.10315 10956 ft 331 kts 335°
2026-04-25 20:23 55.17820 -3.11935 10290 ft 327 kts 334°
2026-04-25 20:24 55.19883 -3.13521 9814 ft 316 kts 334°
2026-04-25 20:24 55.21854 -3.15022 9549 ft 300 kts 335°
2026-04-25 20:24 55.23709 -3.16428 9196 ft 290 kts 334°
2026-04-25 20:24 55.25538 -3.17833 8701 ft 285 kts 334°
2026-04-25 20:25 55.27342 -3.19229 8340 ft 282 kts 334°
2026-04-25 20:25 55.29137 -3.20632 8270 ft 283 kts 334°
2026-04-25 20:25 55.30941 -3.22037 8267 ft 283 kts 334°
2026-04-25 20:25 55.32741 -3.23438 8271 ft 283 kts 334°
2026-04-25 20:26 55.34540 -3.24833 8273 ft 283 kts 334°
2026-04-25 20:26 55.36341 -3.26239 8273 ft 283 kts 335°
2026-04-25 20:26 55.38138 -3.27656 8273 ft 283 kts 334°
2026-04-25 20:26 55.39930 -3.29061 8273 ft 283 kts 334°
2026-04-25 20:27 55.41734 -3.30471 8269 ft 283 kts 334°
2026-04-25 20:27 55.43533 -3.31875 8152 ft 283 kts 334°
2026-04-25 20:27 55.45331 -3.33285 7611 ft 282 kts 334°
2026-04-25 20:27 55.47119 -3.34697 7084 ft 281 kts 334°
2026-04-25 20:28 55.48898 -3.36090 6626 ft 276 kts 334°
2026-04-25 20:28 55.50638 -3.37439 6212 ft 272 kts 334°
2026-04-25 20:28 55.52366 -3.38751 5986 ft 270 kts 334°
2026-04-25 20:28 55.54092 -3.40085 5968 ft 271 kts 334°
2026-04-25 20:29 55.55824 -3.41436 5967 ft 271 kts 334°
2026-04-25 20:29 55.57538 -3.42777 5965 ft 271 kts 334°
2026-04-25 20:29 55.59270 -3.44126 5971 ft 271 kts 334°
2026-04-25 20:29 55.60990 -3.45453 5966 ft 271 kts 334°
2026-04-25 20:30 55.62720 -3.46791 5966 ft 271 kts 333°
2026-04-25 20:30 55.64445 -3.48133 5971 ft 271 kts 334°
2026-04-25 20:30 55.66172 -3.49502 5944 ft 271 kts 333°
2026-04-25 20:30 55.67893 -3.50847 5487 ft 272 kts 334°
2026-04-25 20:31 55.69615 -3.52188 5082 ft 268 kts 334°
2026-04-25 20:31 55.71320 -3.53517 4991 ft 265 kts 334°
2026-04-25 20:31 55.72957 -3.54799 4979 ft 250 kts 334°
2026-04-25 20:31 55.74532 -3.56033 4761 ft 247 kts 334°
2026-04-25 20:32 55.76114 -3.57257 4291 ft 249 kts 335°
2026-04-25 20:32 55.77690 -3.58493 3862 ft 247 kts 334°
2026-04-25 20:32 55.79266 -3.59746 3428 ft 247 kts 334°
2026-04-25 20:32 55.80808 -3.61033 3083 ft 244 kts 335°
2026-04-25 20:33 55.82332 -3.62357 2990 ft 244 kts 334°
2026-04-25 20:33 55.83891 -3.63536 2986 ft 242 kts 349°
2026-04-25 20:33 55.85547 -3.63435 2991 ft 238 kts 20°
2026-04-25 20:33 55.86048 -3.63039 2984 ft 231 kts 34°
2026-04-25 20:34 55.87481 -3.59607 2947 ft 194 kts 65°
2026-04-25 20:34 55.88098 -3.57565 2718 ft 182 kts 60°
2026-04-25 20:34 55.88747 -3.55701 2451 ft 174 kts 61°
2026-04-25 20:34 55.89361 -3.53899 2207 ft 165 kts 62°
2026-04-25 20:35 55.89935 -3.52199 1986 ft 156 kts 62°
2026-04-25 20:35 55.90487 -3.50569 1777 ft 150 kts 62°
2026-04-25 20:35 55.91008 -3.49036 1548 ft 135 kts 63°
2026-04-25 20:35 55.91462 -3.47696 1369 ft 119 kts 61°
2026-04-25 20:36 55.91880 -3.46461 1208 ft 115 kts 60°
2026-04-25 20:36 55.92292 -3.45241 1054 ft 115 kts 59°
2026-04-25 20:36 55.92705 -3.44025 878 ft 114 kts 61°
2026-04-25 20:36 55.93107 -3.42832 738 ft 113 kts 59°
2026-04-25 20:37 55.93525 -3.41623 510 ft 112 kts 58°
2026-04-25 20:37 55.93940 -3.40435 357 ft 114 kts 58°
2026-04-25 20:37 55.94204 -3.39628 252 ft 113 kts 60°
2026-04-25 20:37 55.94708 -3.38122 121 ft 112 kts 61°
2026-04-25 20:38 55.95099 -3.36958 114 ft 100 kts 58°
2026-04-25 20:38 55.95377 -3.36138 111 ft 62 kts 59°
2026-04-25 20:38 55.95534 -3.35671 114 ft 20 kts 59°
2026-04-25 20:38 55.95545 -3.35500 115 ft 10 kts 131°
2026-04-25 20:39 55.95493 -3.35436 115 ft 9 kts 150°
2026-04-25 20:39 55.95463 -3.35413 118 ft 7 kts 161°
2026-04-25 20:39 55.95425 -3.35437 115 ft 8 kts 225°
2026-04-25 20:39 55.95404 -3.35494 115 ft 9 kts 243°
2026-04-25 20:40 55.95357 -3.35625 115 ft 11 kts 237°
2026-04-25 20:40 55.95312 -3.35758 116 ft 13 kts 237°
2026-04-25 20:40 55.95272 -3.35866 116 ft 0 kts 242°
2026-04-25 20:40 55.95267 -3.35882 116 ft 11 kts 242°
2026-04-25 20:41 55.95256 -3.35924 115 ft 1 kts 243°
2026-04-25 20:41 55.95238 -3.35965 115 ft 6 kts 226°
2026-04-25 20:41 55.95198 -3.35976 118 ft 5 kts 166°
2026-04-25 20:41 55.95153 -3.35930 116 ft 9 kts 148°
2026-04-25 20:42 55.95094 -3.35799 117 ft 16 kts 126°
2026-04-25 20:42 55.95038 -3.35641 117 ft 15 kts 120°
2026-04-25 20:42 55.94987 -3.35469 116 ft 8 kts 112°
2026-04-25 20:42 55.94994 -3.35404 117 ft 4 kts 57°
2026-04-25 20:43 55.95021 -3.35369 117 ft 6 kts 31°
2026-04-25 20:43 55.95065 -3.35342 117 ft 7 kts
2026-04-25 20:43 55.95089 -3.35363 116 ft 6 kts 320°
2026-04-25 20:43 55.95126 -3.35472 117 ft 7 kts 298°
2026-04-25 20:44 55.95158 -3.35496 118 ft 2 kts 20°
2026-04-25 20:44 55.95173 -3.35479 116 ft 0 kts 31°
2026-04-25 20:44 55.95178 -3.35474 117 ft 1 kts 30°
2026-04-25 20:44 55.95184 -3.35468 118 ft 0 kts 29°